When you browse on this site, cookies collect data to enhance your experience and personalize the content and advertising you see.
Visit our Privacy Policy to learn more. By continuing to use the site, you agree to this use of cookies and data.
  • în România
  • Lista ţărilor
  • Pe 7 zile
  • Temperatura apei
  • Hartă satelitară
  • Meteo pe hartă
  • Widget-uri
  • user-avatar
    Intrare

    Meteo pe oră la Novoberezovskiy

    Astăzi, 20 Iunie, Joi

    Timp Temperatura Precipitaţii Vânt Presiune Umiditate
    00:00 +18°C° 0 mm 1 m/s 752 mmHg 83%
    01:00 +18°C° 0 mm 1 m/s 752 mmHg 84%
    02:00 +17°C° 0 mm 2 m/s 752 mmHg 85%
    03:00 +16°C° 0 mm 1 m/s 753 mmHg 85%
    04:00 +18°C° 0 mm 1 m/s 753 mmHg 82%
    05:00 +19°C° 0 mm 2 m/s 753 mmHg 79%
    06:00 +20°C° 0 mm 2 m/s 754 mmHg 76%
    07:00 +21°C° 0 mm 3 m/s 754 mmHg 70%
    08:00 +24°C° 0 mm 3 m/s 754 mmHg 64%
    09:00 +26°C° 0 mm 3 m/s 754 mmHg 57%
    10:00 +26°C° 0 mm 3 m/s 754 mmHg 55%
    11:00 +27°C° 0 mm 4 m/s 754 mmHg 52%
    12:00 +28°C° 0 mm 4 m/s 754 mmHg 50%
    13:00 +28°C° 0 mm 4 m/s 754 mmHg 51%
    14:00 +28°C° 0 mm 3 m/s 754 mmHg 53%
    15:00 +28°C° 0 mm 3 m/s 753 mmHg 57%
    16:00 +27°C° 0.3 mm 3 m/s 754 mmHg 60%
    17:00 +27°C° 0.3 mm 3 m/s 754 mmHg 63%
    18:00 +26°C° 0.3 mm 3 m/s 754 mmHg 65%
    19:00 +24°C° 0 mm 2 m/s 754 mmHg 67%
    20:00 +23°C° 0 mm 2 m/s 754 mmHg 69%
    21:00 +20°C° 0 mm 2 m/s 755 mmHg 71%
    22:00 +20°C° 0 mm 2 m/s 755 mmHg 73%
    23:00 +20°C° 0 mm 1 m/s 755 mmHg 74%

    Mâine, 21 Iunie, Vineri

    Timp Temperatura Precipitaţii Vânt Presiune Umiditate
    00:00 +20°C° 0 mm 1 m/s 755 mmHg 76%
    01:00 +19°C° 0 mm 1 m/s 755 mmHg 78%
    02:00 +18°C° 0 mm 2 m/s 755 mmHg 79%
    03:00 +18°C° 0 mm 2 m/s 756 mmHg 81%
    04:00 +19°C° 0 mm 2 m/s 756 mmHg 79%
    05:00 +20°C° 0 mm 2 m/s 756 mmHg 77%
    06:00 +21°C° 0 mm 2 m/s 757 mmHg 75%
    07:00 +24°C° 0 mm 2 m/s 757 mmHg 68%
    08:00 +25°C° 0 mm 2 m/s 757 mmHg 61%
    09:00 +27°C° 0 mm 3 m/s 757 mmHg 54%
    10:00 +28°C° 0 mm 3 m/s 757 mmHg 51%
    11:00 +29°C° 0 mm 3 m/s 757 mmHg 48%
    12:00 +29°C° 0 mm 3 m/s 757 mmHg 45%
    13:00 +29°C° 0 mm 3 m/s 757 mmHg 46%
    14:00 +29°C° 0 mm 3 m/s 757 mmHg 47%
    15:00 +29°C° 0 mm 2 m/s 757 mmHg 49%
    16:00 +28°C° 0 mm 2 m/s 757 mmHg 53%
    17:00 +27°C° 0 mm 2 m/s 757 mmHg 57%
    18:00 +27°C° 0 mm 1 m/s 757 mmHg 60%
    19:00 +25°C° 0 mm 1 m/s 757 mmHg 63%
    20:00 +24°C° 0 mm 1 m/s 757 mmHg 65%
    21:00 +21°C° 0 mm 0 m/s 758 mmHg 67%
    22:00 +20°C° 0 mm 0 m/s 758 mmHg 70%
    23:00 +19°C° 0 mm 0 m/s 758 mmHg 72%

    Poimâine, 22 Iunie, Sâmbătă

    Timp Temperatura Precipitaţii Vânt Presiune Umiditate
    00:00 +18°C° 0 mm 0 m/s 758 mmHg 75%
    01:00 +18°C° 0 mm 0 m/s 758 mmHg 75%
    02:00 +20°C° 0 mm 1 m/s 758 mmHg 75%
    03:00 +20°C° 0 mm 1 m/s 758 mmHg 75%
    04:00 +21°C° 0 mm 1 m/s 758 mmHg 73%
    05:00 +22°C° 0 mm 1 m/s 759 mmHg 71%
    06:00 +23°C° 0 mm 1 m/s 759 mmHg 69%
    07:00 +25°C° 0 mm 1 m/s 759 mmHg 64%
    08:00 +26°C° 0 mm 2 m/s 759 mmHg 58%
    09:00 +28°C° 0 mm 2 m/s 759 mmHg 53%
    10:00 +28°C° 0 mm 2 m/s 759 mmHg 49%
    11:00 +29°C° 0 mm 2 m/s 759 mmHg 46%
    12:00 +30°C° 0 mm 2 m/s 758 mmHg 43%
    13:00 +30°C° 0 mm 2 m/s 758 mmHg 44%
    14:00 +30°C° 0 mm 2 m/s 758 mmHg 46%
    15:00 +29°C° 0 mm 2 m/s 758 mmHg 47%
    16:00 +29°C° 0 mm 2 m/s 758 mmHg 51%
    17:00 +29°C° 0 mm 2 m/s 758 mmHg 54%
    18:00 +28°C° 0 mm 1 m/s 757 mmHg 57%
    19:00 +27°C° 0 mm 2 m/s 758 mmHg 59%
    20:00 +25°C° 0 mm 2 m/s 758 mmHg 61%
    21:00 +23°C° 0 mm 2 m/s 758 mmHg 63%
    22:00 +23°C° 0 mm 2 m/s 758 mmHg 64%
    23:00 +21°C° 0 mm 2 m/s 758 mmHg 66%

    23 Iunie, Duminică

    Timp Temperatura Precipitaţii Vânt Presiune Umiditate
    00:00 +21°C° 0 mm 2 m/s 758 mmHg 67%
    01:00 +20°C° 0 mm 2 m/s 758 mmHg 68%
    02:00 +20°C° 0 mm 2 m/s 758 mmHg 69%
    03:00 +20°C° 0 mm 2 m/s 758 mmHg 70%
    04:00 +21°C° 0 mm 2 m/s 758 mmHg 70%
    05:00 +22°C° 0 mm 3 m/s 758 mmHg 69%
    06:00 +22°C° 0 mm 3 m/s 758 mmHg 68%
    07:00 +25°C° 0 mm 3 m/s 758 mmHg 64%
    08:00 +27°C° 0 mm 4 m/s 758 mmHg 60%
    09:00 +28°C° 0 mm 4 m/s 758 mmHg 56%
    10:00 +29°C° 0 mm 4 m/s 758 mmHg 53%
    11:00 +30°C° 0 mm 4 m/s 757 mmHg 51%
    12:00 +32°C° 0 mm 4 m/s 757 mmHg 48%
    13:00 +32°C° 0 mm 4 m/s 757 mmHg 49%
    14:00 +32°C° 0 mm 4 m/s 757 mmHg 49%
    15:00 +32°C° 0 mm 4 m/s 757 mmHg 50%
    16:00 +30°C° 0 mm 4 m/s 757 mmHg 54%
    17:00 +30°C° 0 mm 3 m/s 756 mmHg 58%
    18:00 +29°C° 0 mm 3 m/s 756 mmHg 62%
    19:00 +28°C° 0 mm 3 m/s 756 mmHg 65%
    20:00 +26°C° 0 mm 2 m/s 756 mmHg 68%
    21:00 +25°C° 0 mm 2 m/s 756 mmHg 70%
    22:00 +24°C° 0 mm 2 m/s 756 mmHg 72%
    23:00 +24°C° 0 mm 2 m/s 756 mmHg 75%

    24 Iunie, Luni

    Timp Temperatura Precipitaţii Vânt Presiune Umiditate
    00:00 +23°C° 0 mm 2 m/s 756 mmHg 77%
    01:00 +23°C° 0 mm 2 m/s 756 mmHg 78%
    02:00 +21°C° 0 mm 2 m/s 756 mmHg 79%
    03:00 +22°C° 0 mm 1 m/s 756 mmHg 80%
    04:00 +23°C° 0 mm 2 m/s 756 mmHg 78%
    05:00 +24°C° 0 mm 2 m/s 756 mmHg 77%
    06:00 +25°C° 0 mm 2 m/s 756 mmHg 75%
    07:00 +26°C° 0.6 mm 2 m/s 756 mmHg 72%
    08:00 +27°C° 0.6 mm 3 m/s 756 mmHg 70%
    09:00 +28°C° 0.6 mm 3 m/s 756 mmHg 67%
    10:00 +28°C° 0.9 mm 4 m/s 756 mmHg 66%
    11:00 +28°C° 0.9 mm 4 m/s 756 mmHg 64%
    12:00 +29°C° 0.9 mm 4 m/s 756 mmHg 62%
    13:00 +28°C° 0.3 mm 5 m/s 756 mmHg 61%
    14:00 +28°C° 0.3 mm 5 m/s 756 mmHg 59%
    15:00 +27°C° 0.3 mm 5 m/s 756 mmHg 58%
    16:00 +26°C° 0 mm 5 m/s 757 mmHg 58%
    17:00 +25°C° 0 mm 5 m/s 757 mmHg 58%
    18:00 +23°C° 0 mm 4 m/s 757 mmHg 58%
    19:00 +21°C° 0 mm 4 m/s 757 mmHg 59%
    20:00 +20°C° 0 mm 4 m/s 757 mmHg 61%
    21:00 +18°C° 0 mm 3 m/s 758 mmHg 63%
    22:00 +17°C° 0 mm 3 m/s 758 mmHg 65%
    23:00 +17°C° 0 mm 3 m/s 758 mmHg 66%

    25 Iunie, Marţi

    Timp Temperatura Precipitaţii Vânt Presiune Umiditate
    00:00 +16°C° 0 mm 2 m/s 758 mmHg 68%
    01:00 +15°C° 0 mm 2 m/s 758 mmHg 70%
    02:00 +15°C° 0 mm 2 m/s 758 mmHg 72%
    03:00 +14°C° 0 mm 2 m/s 758 mmHg 74%
    04:00 +15°C° 0 mm 2 m/s 758 mmHg 73%
    05:00 +16°C° 0 mm 2 m/s 758 mmHg 71%
    06:00 +17°C° 0 mm 3 m/s 758 mmHg 70%
    07:00 +18°C° 0 mm 3 m/s 758 mmHg 64%
    08:00 +20°C° 0 mm 3 m/s 758 mmHg 58%
    09:00 +21°C° 0 mm 4 m/s 758 mmHg 52%
    10:00 +21°C° 0 mm 4 m/s 758 mmHg 52%
    11:00 +21°C° 0 mm 4 m/s 758 mmHg 53%
    12:00 +21°C° 0 mm 4 m/s 758 mmHg 53%
    13:00 +21°C° 0 mm 4 m/s 758 mmHg 53%
    14:00 +21°C° 0 mm 4 m/s 758 mmHg 54%
    15:00 +21°C° 0 mm 4 m/s 757 mmHg 54%
    16:00 +20°C° 0 mm 4 m/s 757 mmHg 57%
    17:00 +19°C° 0 mm 4 m/s 757 mmHg 60%
    18:00 +19°C° 0 mm 4 m/s 757 mmHg 63%
    19:00 +17°C° 0 mm 4 m/s 758 mmHg 67%
    20:00 +15°C° 0 mm 4 m/s 758 mmHg 71%
    21:00 +13°C° 0 mm 3 m/s 758 mmHg 75%
    22:00 +13°C° 0 mm 3 m/s 758 mmHg 77%
    23:00 +12°C° 0 mm 3 m/s 758 mmHg 80%
    Arată mai mult